EN

Hourly Weather Lachowo

Today, 30 July, Friday

Time Temperature Precipitation Wind Pressure Humidity
00:00 +18°C° 0 mm 3 mps 743 mmHg 76%
01:00 +17°C° 0 mm 3 mps 743 mmHg 76%
02:00 +16°C° 0 mm 3 mps 743 mmHg 78%
03:00 +16°C° 0 mm 2 mps 743 mmHg 79%
04:00 +15°C° 0 mm 2 mps 743 mmHg 81%
05:00 +17°C° 0 mm 3 mps 743 mmHg 75%
06:00 +19°C° 0 mm 3 mps 743 mmHg 70%
07:00 +20°C° 0 mm 3 mps 743 mmHg 64%
08:00 +21°C° 0 mm 4 mps 743 mmHg 57%
09:00 +22°C° 0 mm 5 mps 743 mmHg 50%
10:00 +25°C° 0 mm 5 mps 743 mmHg 43%
11:00 +24°C° 0 mm 6 mps 743 mmHg 42%
12:00 +26°C° 0 mm 6 mps 742 mmHg 41%
13:00 +26°C° 0 mm 7 mps 742 mmHg 39%
14:00 +26°C° 0 mm 6 mps 742 mmHg 41%
15:00 +26°C° 0 mm 6 mps 742 mmHg 42%
16:00 +26°C° 0 mm 5 mps 742 mmHg 43%
17:00 +25°C° 0 mm 5 mps 741 mmHg 48%
18:00 +22°C° 0 mm 4 mps 741 mmHg 52%
19:00 +21°C° 0 mm 4 mps 741 mmHg 57%
20:00 +20°C° 0 mm 3 mps 741 mmHg 61%
21:00 +19°C° 0 mm 3 mps 742 mmHg 65%
22:00 +17°C° 0 mm 3 mps 742 mmHg 69%
23:00 +17°C° 0 mm 3 mps 742 mmHg 69%

Tomorrow, 31 July, Saturday

Time Temperature Precipitation Wind Pressure Humidity
00:00 +16°C° 0 mm 2 mps 742 mmHg 70%
01:00 +16°C° 0 mm 2 mps 742 mmHg 70%
02:00 +15°C° 0 mm 2 mps 742 mmHg 70%
03:00 +15°C° 0 mm 2 mps 742 mmHg 69%
04:00 +15°C° 0 mm 2 mps 742 mmHg 69%
05:00 +16°C° 0 mm 2 mps 742 mmHg 66%
06:00 +18°C° 0 mm 2 mps 742 mmHg 62%
07:00 +19°C° 0 mm 3 mps 742 mmHg 59%
08:00 +21°C° 0 mm 3 mps 742 mmHg 55%
09:00 +24°C° 0 mm 3 mps 742 mmHg 51%
10:00 +26°C° 0 mm 3 mps 742 mmHg 48%
11:00 +26°C° 0 mm 3 mps 742 mmHg 46%
12:00 +27°C° 0 mm 3 mps 742 mmHg 45%
13:00 +28°C° 0 mm 3 mps 741 mmHg 43%
14:00 +27°C° 0 mm 4 mps 741 mmHg 48%
15:00 +26°C° 0 mm 4 mps 741 mmHg 54%
16:00 +26°C° 0 mm 4 mps 741 mmHg 60%
17:00 +23°C° 0.3 mm 4 mps 741 mmHg 70%
18:00 +21°C° 0.3 mm 4 mps 741 mmHg 81%
19:00 +19°C° 0.3 mm 4 mps 741 mmHg 91%
20:00 +19°C° 0.1 mm 4 mps 741 mmHg 93%
21:00 +18°C° 0.1 mm 4 mps 741 mmHg 94%
22:00 +17°C° 0.1 mm 4 mps 741 mmHg 96%
23:00 +17°C° 0 mm 4 mps 741 mmHg 95%

Day after tomorrow, 1 August, Sunday

Time Temperature Precipitation Wind Pressure Humidity
00:00 +17°C° 0 mm 3 mps 741 mmHg 94%
01:00 +16°C° 0 mm 3 mps 741 mmHg 93%
02:00 +14°C° 0 mm 3 mps 741 mmHg 91%
03:00 +14°C° 0 mm 3 mps 741 mmHg 89%
04:00 +13°C° 0 mm 3 mps 742 mmHg 86%
05:00 +16°C° 0 mm 3 mps 742 mmHg 80%
06:00 +17°C° 0 mm 3 mps 742 mmHg 75%
07:00 +19°C° 0 mm 4 mps 742 mmHg 69%
08:00 +20°C° 0 mm 4 mps 742 mmHg 63%
09:00 +22°C° 0 mm 4 mps 742 mmHg 56%
10:00 +23°C° 0 mm 4 mps 743 mmHg 50%
11:00 +25°C° 0 mm 4 mps 742 mmHg 48%
12:00 +25°C° 0 mm 4 mps 742 mmHg 47%
13:00 +26°C° 0 mm 4 mps 742 mmHg 45%
14:00 +22°C° 0.2 mm 4 mps 742 mmHg 59%
15:00 +20°C° 0.2 mm 5 mps 742 mmHg 72%
16:00 +16°C° 0.2 mm 5 mps 742 mmHg 86%
17:00 +15°C° 2.5 mm 4 mps 742 mmHg 89%
18:00 +16°C° 2.5 mm 2 mps 742 mmHg 92%
19:00 +15°C° 2.5 mm 1 mps 742 mmHg 96%
20:00 +14°C° 0.2 mm 1 mps 742 mmHg 96%
21:00 +14°C° 0.2 mm 1 mps 742 mmHg 95%
22:00 +14°C° 0.2 mm 2 mps 742 mmHg 95%
23:00 +13°C° 0 mm 2 mps 742 mmHg 95%

2 August, Monday

Time Temperature Precipitation Wind Pressure Humidity
00:00 +13°C° 0 mm 2 mps 742 mmHg 95%
01:00 +13°C° 0 mm 2 mps 742 mmHg 95%
02:00 +13°C° 0 mm 2 mps 742 mmHg 95%
03:00 +13°C° 0 mm 2 mps 742 mmHg 96%
04:00 +13°C° 0 mm 2 mps 742 mmHg 96%
05:00 +14°C° 0 mm 2 mps 742 mmHg 93%
06:00 +15°C° 0 mm 2 mps 742 mmHg 89%
07:00 +17°C° 0 mm 2 mps 742 mmHg 86%
08:00 +18°C° 0.1 mm 2 mps 742 mmHg 78%
09:00 +19°C° 0.1 mm 3 mps 742 mmHg 70%
10:00 +21°C° 0.1 mm 3 mps 742 mmHg 63%
11:00 +22°C° 0.1 mm 3 mps 742 mmHg 59%
12:00 +22°C° 0.1 mm 4 mps 742 mmHg 55%
13:00 +23°C° 0.1 mm 4 mps 742 mmHg 51%
14:00 +23°C° 0.2 mm 5 mps 742 mmHg 55%
15:00 +22°C° 0.2 mm 5 mps 742 mmHg 60%
16:00 +21°C° 0.2 mm 5 mps 742 mmHg 65%
17:00 +20°C° 0.4 mm 4 mps 742 mmHg 72%
18:00 +18°C° 0.4 mm 3 mps 743 mmHg 79%
19:00 +17°C° 0.4 mm 3 mps 743 mmHg 87%
20:00 +16°C° 0 mm 2 mps 743 mmHg 87%
21:00 +15°C° 0 mm 2 mps 744 mmHg 87%
22:00 +14°C° 0 mm 2 mps 744 mmHg 87%
23:00 +14°C° 0 mm 2 mps 744 mmHg 87%

3 August, Tuesday

Time Temperature Precipitation Wind Pressure Humidity
00:00 +14°C° 0 mm 2 mps 745 mmHg 87%
01:00 +14°C° 0 mm 2 mps 745 mmHg 87%
02:00 +13°C° 0 mm 2 mps 745 mmHg 88%
03:00 +13°C° 0 mm 2 mps 745 mmHg 89%
04:00 +11°C° 0 mm 3 mps 745 mmHg 90%
05:00 +13°C° 0 mm 3 mps 746 mmHg 85%
06:00 +14°C° 0 mm 3 mps 746 mmHg 80%
07:00 +16°C° 0 mm 3 mps 746 mmHg 76%
08:00 +18°C° 0 mm 4 mps 746 mmHg 67%
09:00 +19°C° 0 mm 4 mps 746 mmHg 59%
10:00 +21°C° 0 mm 5 mps 746 mmHg 50%
11:00 +21°C° 0 mm 5 mps 746 mmHg 49%
12:00 +22°C° 0 mm 5 mps 746 mmHg 47%
13:00 +22°C° 0 mm 5 mps 746 mmHg 45%
14:00 +22°C° 0 mm 4 mps 746 mmHg 48%
15:00 +22°C° 0 mm 4 mps 746 mmHg 50%
16:00 +21°C° 0 mm 3 mps 746 mmHg 53%
17:00 +20°C° 0 mm 3 mps 746 mmHg 56%
18:00 +20°C° 0 mm 2 mps 746 mmHg 58%
19:00 +19°C° 0 mm 2 mps 746 mmHg 60%
20:00 +18°C° 0 mm 2 mps 746 mmHg 62%
21:00 +17°C° 0 mm 2 mps 746 mmHg 64%
22:00 +17°C° 0 mm 2 mps 747 mmHg 66%
23:00 +17°C° 0 mm 2 mps 747 mmHg 67%

4 August, Wednesday

Time Temperature Precipitation Wind Pressure Humidity
00:00 +16°C° 0 mm 2 mps 747 mmHg 68%
01:00 +16°C° 0 mm 1 mps 747 mmHg 69%
02:00 +16°C° 0 mm 1 mps 747 mmHg 70%
03:00 +16°C° 0 mm 2 mps 747 mmHg 71%
04:00 +15°C° 0 mm 2 mps 747 mmHg 72%
05:00 +16°C° 0 mm 1 mps 747 mmHg 72%
06:00 +18°C° 0 mm 1 mps 747 mmHg 71%
07:00 +18°C° 0 mm 1 mps 747 mmHg 71%
08:00 +19°C° 0 mm 1 mps 747 mmHg 68%
09:00 +20°C° 0 mm 1 mps 747 mmHg 66%
10:00 +21°C° 0 mm 1 mps 747 mmHg 64%
11:00 +21°C° 0 mm 1 mps 747 mmHg 62%
12:00 +22°C° 0 mm 1 mps 747 mmHg 60%
13:00 +22°C° 0 mm 1 mps 747 mmHg 59%
14:00 +22°C° 0 mm 1 mps 747 mmHg 60%
15:00 +22°C° 0 mm 1 mps 746 mmHg 61%
16:00 +22°C° 0 mm 1 mps 746 mmHg 63%
17:00 +20°C° 0.1 mm 2 mps 746 mmHg 70%
18:00 +18°C° 0.1 mm 2 mps 746 mmHg 78%
19:00 +17°C° 0.1 mm 2 mps 746 mmHg 86%
20:00 +17°C° 0.5 mm 2 mps 746 mmHg 88%
21:00 +17°C° 0.5 mm 2 mps 746 mmHg 91%
22:00 +16°C° 0.5 mm 2 mps 746 mmHg 94%
23:00 +16°C° 0.5 mm 2 mps 746 mmHg 95%
Show more